ATLAS 5 CENTAUR DEB, 43995

Orbit data source: Space-Track

ATLAS 5 CENTAUR DEB, 43995 is space debris in HEO originally from a launch on Wed, 17 Sep 2014 UTC launched from the Air Force Eastern Test Range (AFETR). Debris objects in space refer to the collection of defunct objects orbiting the Earth. Examples of debris include non-operational satellites, rocket bodies, and fragments generated from explosions, collisions, or faulty payload assembly.

Loading next visibility...
Identifier
43995, 2014-055BA
Orbit
HEO
Country
Flag of USUS
Related business
Flag of USUnited Launch Alliance/Lockheed Martin (US)
Manufacturer
Unknown
Mission
Spacecraft
Bus & Motor
Unknown
Mass
Unknown
Launch date (UTC)
2014-09-17 (12 years ago)
Launch vehicle
Unknown
Launch site
Air Force Eastern Test Range (AFETR)
Object type
Payload
Rocket body
Debris
Shape & HBR
Unknown shape, 1.1 m
Radar Cross Section
Medium (>0.1 m² and <1 m²)

Expand to show TLE details & history
Last TLE update: 1 week ago

TLE from 1 week ago
0 ATLAS 5 CENTAUR DEB
1 43995U 14055BA  26226.47738455 -.00000130  00000-0  00000-0 0  9991
2 43995  20.5292 128.0778 4761977 197.2748 138.3427  1.88989714 54174
Epoch: 2026-08-14T11:27Z
TLE epoch observation values (Epoch: 2026-08-14T11:27:26.025Z)
Latitude
0.00004°
Longitude
-6.64826°
Altitude
32,834.948 km
Speed
2.43 km/s
True Right ascension
08h 32m 26s
True Declination
0° 00' 00"
Sunlit
Object was in daylight at epoch
Visualization orbit readout
Latitude
Unknown
Longitude
Unknown
Altitude
Unknown
Speed
Unknown
Apparent Right ascension
Unknown
Apparent Declination
Unknown
Sunlit
N/A
Visualization observer readout
Local Sidereal Time
15:53:54
Azimuth
Unknown
Elevation
Unknown
Doppler factor
Unknown
Orbital elements
Apogee altitude
34,417.892 km
Perigee altitude
8,097.603 km
Semi-major axis
27,635.885 km
Eccentricity
0.4762
Inclination
20.5292°
RAAN
128.0778°
Arg. of periapsis
197.2748°
True anomaly
162.7342°
Mean anomaly
138.3427°
Eccentric anomaly
151.40239°
Mean motion
0.47243 °/min
Orbital period
762.03 mins
BSTAR
0
Loading maneuver chart data...
Computing Atmospheric mass density...

Documentation

Showing up to 5 results
|